CZ-6A DEB, 56621

Orbit data source: Space-Track

CZ-6A DEB, 56621 is space debris in SSO originally from a launch on Fri, 11 Nov 2022 UTC launched from the Taiyaun Space Center, China (TSC). Debris objects in space refer to the collection of defunct objects orbiting the Earth. Examples of debris include non-operational satellites, rocket bodies, and fragments generated from explosions, collisions, or faulty payload assembly.

Loading next visibility...
Identifier
56621, 2022-151AEV
Orbit
SSO
Country
Flag of CNCN / PRC
Related business
Manufacturer
SAST
Mission
Spacecraft
Bus & Motor
Unknown
Mass
Unknown
Launch date (UTC)
2022-11-11 (3 years ago)
Launch vehicle
Unknown
Launch site
Taiyaun Space Center, China (TSC)
Object type
Payload
Rocket body
Debris
Shape & HBR
Unknown shape, 0.1 m
Radar Cross Section
Small (<0.1 m²)

Expand to show TLE details & history
Last TLE update: 17 hours ago

TLE from 17 hours ago
0 CZ-6A DEB
1 56621U 22151AEV 26129.75992030  .00000141  00000-0  12468-3 0  9996
2 56621  98.9275 107.0447 0115838 175.9653 184.2471 13.96899332159912
Epoch: 2026-05-09T18:14Z
TLE epoch observation values (Epoch: 2026-05-09T18:14:17.113Z)
Latitude
-0.00007°
Longitude
-34.09933°
Altitude
991.58 km
Speed
7.313 km/s
True Right ascension
07h 08m 10s
True Declination
0° 00' 00"
Sunlit
Object was in daylight at epoch
Visualization orbit readout
Latitude
Unknown
Longitude
Unknown
Altitude
Unknown
Speed
Unknown
Apparent Right ascension
Unknown
Apparent Declination
Unknown
Sunlit
N/A
Visualization observer readout
Local Sidereal Time
19:53:19
Azimuth
Unknown
Elevation
Unknown
Doppler factor
Unknown
Orbital elements
Apogee altitude
986.08 km
Perigee altitude
817.423 km
Semi-major axis
7,279.889 km
Eccentricity
0.01158
Inclination
98.9275°
RAAN
107.0447°
Arg. of periapsis
175.9653°
True anomaly
184.1502°
Mean anomaly
184.2471°
Eccentric anomaly
184.19851°
Mean motion
3.49427 °/min
Orbital period
103.03 mins
BSTAR
0.00012468
Loading maneuver chart data...
Computing Atmospheric mass density...
Loading historical data...
Loading historical data...
Loading historical data...
Loading historical data...
Loading historical data...
Loading historical data...
Loading historical data...

Documentation

Showing up to 5 results
|